SL-8 DEB, 21408

Orbit data source: Space-Track

SL-8 DEB, 21408 is space debris in LEO originally from a launch on Tue, 12 Feb 1991 UTC launched from the Plesetsk Missile And Space Complex (PKMTR). Debris objects in space refer to the collection of defunct objects orbiting the Earth. Examples of debris include non-operational satellites, rocket bodies, and fragments generated from explosions, collisions, or faulty payload assembly.

Loading next visibility...
Identifier
21408, 1991-009BX
Orbit
LEO
Country
Flag of CISCIS
Related business
Manufacturer
Unknown
Mission
Spacecraft
Bus & Motor
Unknown
Mass
Unknown
Launch date (UTC)
1991-02-12 (35 years ago)
Launch vehicle
Unknown
Launch site
Plesetsk Missile And Space Complex (PKMTR)
Object type
Payload
Rocket body
Debris
Shape & HBR
Unknown shape, 0.1 m
Radar Cross Section
Medium (>0.1 m² and <1 m²)

Expand to show TLE details & history
Last TLE update: 2 days ago

TLE from 2 days ago
0 SL-8 DEB
1 21408U 91009BX  26171.36432446 -.00000177  00000-0 -15603-2 0  9997
2 21408  74.0270 304.6058 0202919  90.6701 300.4600 12.16006702565823
Epoch: 2026-06-20T08:44Z
TLE epoch observation values (Epoch: 2026-06-20T08:44:37.633Z)
Latitude
27.92041°
Longitude
-86.44938°
Altitude
1,533.195 km
Speed
7.137 km/s
True Right ascension
20h 53m 08s
True Declination
27° 47' 32"
Sunlit
Object was in daylight at epoch
Visualization orbit readout
Latitude
Unknown
Longitude
Unknown
Altitude
Unknown
Speed
Unknown
Apparent Right ascension
Unknown
Apparent Declination
Unknown
Sunlit
N/A
Visualization observer readout
Local Sidereal Time
00:51:27
Azimuth
Unknown
Elevation
Unknown
Doppler factor
Unknown
Orbital elements
Apogee altitude
1,769.907 km
Perigee altitude
1,445.805 km
Semi-major axis
7,985.993 km
Eccentricity
0.02029
Inclination
74.027°
RAAN
304.6058°
Arg. of periapsis
90.6701°
True anomaly
298.42998°
Mean anomaly
300.46°
Eccentric anomaly
299.44757°
Mean motion
3.04123 °/min
Orbital period
118.37 mins
BSTAR
-0.0015603
Loading maneuver chart data...
Computing Atmospheric mass density...
Loading historical data...
Loading historical data...
Loading historical data...
Loading historical data...
Loading historical data...
Loading historical data...
Loading historical data...

Documentation

Showing up to 5 results
|